237P/LINEAR (2023)

Japanese version
Home page
Updated on March 15, 2022

---------------------------------------------------------------------

* Profile

* Orbital Elements

Epoch 2022 Jan. 21.0 TT = JDT 2459600.5
T 2023 May 14.60532 TT                                  Rudenko
q   1.9867927            (2000.0)            P               Q
n   0.14973247     Peri.   25.23747     -0.00083569     +0.97546598
a   3.5123036      Node   245.37571     -0.95365022     -0.06702375
e   0.4343334      Incl.   14.01476     -0.30091622     +0.20969964
P   6.58
From 556 observations 2002 May 17-2022 Feb. 26, mean residual 1".3.

* Finding Charts

* Magnitudes Graph

        H = 15.0  G = 0.15               [    ,-194]  (             - 2022 Nov.  1)
        m1 = -12   + 5 log d + 75 log r  [-194,   0]  (2022 Nov.  1 - 2023 May  14)
        m1 =   0.0 + 5 log d + 35 log r  [   0, 380]  (2023 May  14 - 2024 May  28)
        H = 15.0  G = 0.15               [ 380,    ]  (2024 May  28 -             )

---------------------------------------------------------------------

The orbital elements are published on M.P.E.C. 2022-E133.
The charts are made with StellaNavigator Ver.10 (AstroArts).
The magnitudes graphs are made with Comet for Windows.

---------------------------------------------------------------------

Copyright(C) Seiichi Yoshida (comet@aerith.net). All rights reserved.